Disclaimer

Please do not use the information listed here in-flight or in-navigation, as they are not provided to us by the airports but are provided by volunteers, so they might be outdated.

Search


Regions


Airport information page

Radio informations:
Ground (GND) - 121.85 MHz
Automatic Terminal Information Service (ATIS) - 128.125 MHz
LYON APP - 119.45 MHz

Airport informations:
Latitude: 45° 43' 37.82" N
Longitude: 004° 56' 39.39" E
Elevation: 659 feet - 201 meters
Operating hours: 24 hour operations
Operating agency: Civil government, landing fees and diplomatic clearance may be required
Timezone: UTC+1(+2DT) - Last Sunday in March to last Sunday in October
Fuel: Jet A1, without icing nhibitor.

100/130 MIL Spec, low lead, aviation gasoline (BLUE)

Runway information:
16/34 - 5971 x 148 feet< - >1820 x 45 meters

Recent METARs:
LFLY 222000Z AUTO VRB02KT 8000 NSC 01/M02 Q1004
LFLY 222030Z AUTO 00000KT 8000 NSC 01/M03 Q1003
LFLY 222030Z AUTO 00000KT 8000 NSC 01/M03 Q1003

Airport on the map: